Terug naar catalogus

ARIANE 42P+ DEB

ActiefHEO
NORAD 34198·DEBRIS·🇫🇷 France

Gelanceerd Oct 28, 1992 vanaf Guiana Space Centre

Loading…

Volgende Passages (komende 24 uur)

TLE

VersSource: Space-Track

Epoch: Sep 13, 2026, 18:19 UTC

1 34198U 92072AE  26256.76363795  .00001590  00000-0  11661-1 0  9993
2 34198   8.6790 122.3618 6540912 119.1265  58.8347  3.04690727291704

Volg ARIANE 42P+ DEB in realtime met AllMySat

Download on the App Store